1513094400.45,3805,6.5,72756.8,-4.63,-12.79,-12.89,0,*60
1513094401.64,3806,6.5,72734.8,-4.61,-13.23,-13.15,0,*6B
1513094402.87,3807,6.5,72746.5,-4.61,-13.29,-12.97,0,*6B
1513094404.13,3808,6.5,72754.5,-4.61,-12.75,-12.71,0,*64
1513094405.36,3809,6.5,72750.8,-4.61,-12.97,-12.71,0,*69
1513094406.59,3810,6.56,72758.0,-4.61,-12.97,-12.71,0,*61
1513094407.8,3811,6.5,72742.5,-4.61,-13.23,-12.89,0,*69
1513094409.0,3812,6.5,72730.8,-4.61,-13.69,-13.23,0,*65
1513094410.2,3813,6.5,72740.3,-4.61,-13.55,-13.11,0,*6A
1513094411.4,3814,6.5,72744.3,-4.61,-13.11,-12.97,0,*62
1513094412.66,3815,6.56,72750.3,-4.63,-13.37,-13.01,0,*6B
1513094413.87,3816,6.5,72744.5,-4.61,-13.23,-12.97,0,*61
1513094415.06,3817,6.5,72742.0,-4.61,-13.43,-13.15,0,*6D
1513094416.26,3818,6.5,72742.3,-4.61,-13.11,-12.89,0,*61
1513094417.46,3819,6.5,72734.3,-4.61,-13.43,-13.15,0,*63
1513094418.68,3820,6.5,72736.0,-4.61,-13.55,-13.29,0,*61
1513094419.9,3821,6.5,72724.8,-4.61,-13.87,-13.55,0,*64
1513094421.15,3822,6.5,72730.5,-4.63,-13.37,-12.93,0,*65
1513094422.37,3823,6.56,72740.3,-4.61,-11.19,-10.75,0,*62
1513094423.62,3824,6.5,72742.0,-4.63,-10.97,-11.37,0,*67
1513094424.82,3825,6.5,72744.0,-4.61,-11.41,-12.03,0,*6A
1513094426.06,3826,6.5,72738.8,-4.63,-12.65,-13.07,0,*6B
1513094427.33,3827,6.5,72746.8,-4.63,-12.61,-13.33,0,*69
1513094428.55,3828,6.5,72744.0,-4.61,-12.57,-13.43,0,*66
1513094429.77,3829,6.56,72732.0,-4.63,-13.07,-13.65,0,*65
1513094430.99,3830,6.5,72730.5,-4.61,-13.01,-13.43,0,*6D
1513094432.18,3831,6.5,72738.3,-4.61,-13.23,-13.47,0,*68
1513094433.4,3832,6.5,72736.0,-4.63,-13.65,-13.73,0,*6C
1513094434.62,3833,6.5,72734.0,-4.61,-13.55,-13.61,0,*6F
1513094435.87,3834,6.5,72732.5,-4.63,-13.51,-13.29,0,*62
1513094437.14,3835,6.5,72730.5,-4.63,-13.79,-13.37,0,*66
1513094438.39,3836,6.5,72736.5,-4.61,-13.29,-12.83,0,*6C
1513094439.61,3837,6.5,72744.5,-4.63,-13.15,-12.89,0,*6A
1513094440.86,3838,6.5,72746.5,-4.63,-12.21,-11.97,0,*6F
1513094442.08,3839,6.56,72752.0,-4.61,-12.75,-12.47,0,*63
1513094443.33,3840,6.56,72756.3,-4.61,-12.57,-12.57,0,*6C
1513094444.56,3841,6.56,72758.0,-4.61,-12.25,-12.11,0,*6A
1513094445.83,3842,6.5,72768.5,-4.63,-12.07,-11.81,0,*61
1513094447.05,3843,6.56,72770.3,-4.63,-10.97,-10.93,0,*69
1513094448.28,3844,6.56,72782.0,-4.63,-10.35,-10.27,0,*69
1513094449.52,3845,6.56,72782.8,-4.63,-9.83,-10.23,0,*59
1513094450.71,3846,6.5,72784.5,-4.61,-10.09,-10.97,0,*6D
1513094451.94,3847,6.5,72786.3,-4.63,-11.23,-12.03,0,*68
1513094453.18,3848,6.56,72782.8,-4.63,-12.61,-12.89,0,*60
1513094454.43,3849,6.5,72774.3,-4.63,-12.75,-12.93,0,*6F
1513094455.7,3850,6.56,72770.5,-4.63,-12.65,-12.79,0,*62
1513094456.94,3851,6.56,72752.5,-4.63,-12.43,-12.61,0,*6E
1513094458.16,3852,6.5,72754.8,-4.63,-12.03,-12.47,0,*6D
1513094459.42,3853,6.5,72760.3,-4.61,-12.11,-12.71,0,*68
1513094460.65,3854,6.56,72754.5,-4.63,-12.29,-13.19,0,*69
1513094461.91,3855,6.56,72754.0,-4.63,-12.61,-13.61,0,*6B
1513094463.16,3856,6.5,72744.3,-4.63,-12.61,-13.51,0,*6B
1513094464.42,3857,6.5,72744.0,-4.63,-12.61,-13.61,0,*69
1513094465.66,3858,6.56,72740.8,-4.63,-12.65,-13.65,0,*66
1513094466.91,3859,6.56,72736.3,-4.61,-12.71,-13.61,0,*64
1513094468.17,3860,6.56,72732.5,-4.61,-12.75,-13.61,0,*6A
1513094469.41,3861,6.5,72732.5,-4.63,-12.89,-13.61,0,*6A
1513094470.63,3862,6.56,72732.8,-4.61,-12.83,-13.55,0,*66
1513094471.85,3863,6.5,72752.5,-4.61,-12.61,-13.43,0,*6C
1513094473.1,3864,6.56,72762.0,-4.63,-12.29,-13.33,0,*62
1513094474.36,3865,6.56,72762.3,-4.63,-12.79,-13.87,0,*69
1513094475.58,3866,6.56,72748.3,-4.61,-12.83,-13.73,0,*66
1513094476.82,3867,6.56,72738.8,-4.61,-12.83,-13.87,0,*6C
1513094478.03,3868,6.5,72722.8,-4.63,-12.89,-13.93,0,*6E
1513094479.3,3869,6.56,72728.8,-4.63,-12.79,-13.87,0,*65
1513094480.54,3870,6.56,72748.3,-4.63,-12.79,-13.73,0,*66
1513094481.76,3871,6.56,72762.0,-4.61,-12.75,-13.73,0,*69
1513094482.97,3872,6.56,72744.3,-4.61,-12.83,-13.69,0,*68
1513094484.19,3873,6.56,72748.3,-4.61,-12.75,-13.69,0,*60
1513094485.44,3874,6.5,72752.0,-4.61,-12.71,-13.61,0,*6B
1513094486.64,3875,6.5,72746.3,-4.61,-12.47,-13.47,0,*6B
1513094487.85,3876,6.56,72766.3,-4.61,-12.57,-13.69,0,*65
1513094489.1,3877,6.56,72738.8,-4.63,-12.53,-13.73,0,*69
1513094490.32,3878,6.5,72732.8,-4.61,-12.15,-13.23,0,*63
1513094491.52,3879,6.56,72728.5,-4.61,-12.47,-13.55,0,*64
1513094492.74,3880,6.56,72734.5,-4.61,-12.75,-13.69,0,*6C
1513094494.01,3881,6.5,72758.8,-4.63,-12.61,-13.37,0,*61
1513094495.2,3882,6.56,72768.5,-4.61,-12.43,-13.23,0,*65
1513094496.45,3883,6.56,72766.0,-4.61,-12.15,-13.01,0,*67
1513094497.67,3884,6.56,72754.3,-4.61,-12.89,-13.61,0,*63
1513094498.92,3885,6.56,72736.5,-4.61,-13.29,-14.01,0,*68
1513094500.15,3886,6.56,72732.5,-4.61,-13.23,-13.83,0,*6C
1513094501.39,3887,6.5,72734.5,-4.63,-12.89,-13.61,0,*62
1513094502.61,3888,6.56,72734.5,-4.61,-12.47,-13.01,0,*6B
1513094503.85,3889,6.56,72736.0,-4.63,-13.07,-13.61,0,*6B
1513094505.06,3890,6.56,72750.8,-4.61,-13.23,-13.55,0,*60
1513094506.3,3891,6.56,72772.8,-4.63,-13.19,-13.61,0,*6D
1513094507.55,3892,6.56,72764.5,-4.63,-13.19,-13.61,0,*6E
1513094508.77,3893,6.56,72760.5,-4.63,-13.47,-13.73,0,*67
1513094509.96,3894,6.56,72758.0,-4.61,-13.47,-13.55,0,*66
1513094511.16,3895,6.56,72752.0,-4.61,-12.93,-12.93,0,*64
1513094512.36,3896,6.56,72774.3,-4.61,-12.47,-12.47,0,*67
1513094513.62,3897,6.56,72790.0,-4.63,-12.21,-12.79,0,*69
1513094514.89,3898,6.5,72782.0,-4.63,-13.29,-13.61,0,*67
1513094516.11,3899,6.5,72762.3,-4.63,-13.47,-13.51,0,*6D
1513094517.35,3900,6.56,72762.5,-4.63,-13.37,-13.51,0,*6B
1513094518.57,3901,6.56,72752.8,-4.61,-13.47,-13.61,0,*6C
1513094519.82,3902,6.5,72752.5,-4.63,-13.37,-13.51,0,*69
1513094521.06,3903,6.56,72754.8,-4.63,-13.47,-13.61,0,*6C
1513094522.33,3904,6.56,72748.0,-4.63,-13.37,-13.61,0,*6C
1513094523.55,3905,6.56,72762.3,-4.63,-13.73,-13.65,0,*69
1513094524.79,3906,6.56,72766.0,-4.63,-13.79,-13.73,0,*67
1513094526.03,3907,6.56,72776.8,-4.63,-13.19,-13.01,0,*65
1513094527.26,3908,6.5,72774.5,-4.63,-13.51,-13.51,0,*63
1513094528.5,3909,6.5,72772.8,-4.63,-13.47,-13.61,0,*66
1513094529.74,3910,6.5,72762.5,-4.63,-13.47,-13.61,0,*6E
1513094530.97,3911,6.56,72774.3,-4.61,-13.43,-13.61,0,*69
1513094532.24,3912,6.56,72766.8,-4.63,-12.79,-13.33,0,*67
1513094533.48,3913,6.5,72788.0,-4.63,-13.15,-13.37,0,*69
1513094534.69,3914,6.56,72792.3,-4.61,-13.01,-13.47,0,*6E
1513094535.95,3915,6.56,72776.3,-4.61,-13.87,-13.97,0,*6C
1513094537.22,3916,6.56,72798.3,-4.63,-13.61,-14.01,0,*6D
1513094538.48,3917,6.56,72798.8,-4.63,-14.05,-14.15,0,*6C
1513094539.71,3918,6.56,72800.5,-4.63,-13.61,-13.93,0,*6F
1513094540.96,3919,6.56,72788.8,-4.63,-14.05,-14.19,0,*6E
1513094542.22,3920,6.56,72798.0,-4.63,-14.05,-14.15,0,*68
1513094543.44,3921,6.56,72792.0,-4.63,-14.19,-14.23,0,*61
1513094544.66,3922,6.56,72784.5,-4.63,-14.33,-14.33,0,*6B
1513094545.86,3923,6.56,72788.5,-4.61,-14.33,-14.23,0,*69
1513094547.08,3924,6.5,72788.0,-4.63,-14.33,-14.19,0,*65
1513094548.33,3925,6.56,72812.8,-4.63,-14.19,-14.01,0,*65
1513094549.59,3926,6.5,72798.8,-4.63,-14.15,-14.01,0,*6A
1513094550.83,3927,6.56,72780.8,-4.63,-14.33,-13.87,0,*66
1513094552.05,3928,6.56,72778.0,-4.63,-14.23,-13.73,0,*63
1513094553.27,3929,6.56,72778.5,-4.63,-13.93,-13.65,0,*69
1513094554.51,3930,6.56,72784.3,-4.63,-13.07,-13.29,0,*64
1513094555.76,3931,6.56,72784.3,-4.63,-13.19,-13.33,0,*61
1513094556.98,3932,6.56,72778.5,-4.61,-13.33,-13.55,0,*68
1513094558.2,3933,6.56,72768.0,-4.63,-13.65,-13.65,0,*6B
1513094559.43,3934,6.56,72754.8,-4.63,-13.93,-13.79,0,*68
1513094560.64,3935,6.56,72742.5,-4.63,-13.93,-13.93,0,*6D
1513094561.92,3936,6.56,72736.5,-4.63,-14.01,-14.05,0,*6A
1513094563.16,3937,6.5,72742.3,-4.63,-13.65,-14.05,0,*6E
1513094564.41,3938,6.56,72738.8,-4.63,-13.87,-14.15,0,*6C
1513094565.6,3939,6.56,72760.5,-4.61,-12.43,-13.11,0,*65
1513094566.85,3940,6.56,72770.8,-4.63,-12.35,-13.15,0,*6C
1513094568.11,3941,6.56,72782.3,-4.63,-13.29,-13.79,0,*6B
1513094569.36,3942,6.56,72796.8,-4.63,-13.51,-13.87,0,*66
1513094570.6,3943,6.56,72798.8,-4.63,-13.87,-14.19,0,*6C
1513094571.83,3944,6.56,72792.5,-4.63,-14.15,-14.33,0,*6F
1513094573.05,3945,6.56,72770.3,-4.63,-14.33,-14.33,0,*6A
1513094574.28,3946,6.56,72780.8,-4.65,-14.47,-14.33,0,*6C
1513094575.53,3947,6.56,72748.0,-4.63,-14.47,-14.33,0,*6B
1513094576.78,3948,6.5,72750.5,-4.63,-14.33,-14.05,0,*62
1513094578.03,3949,6.56,72752.5,-4.63,-14.23,-14.05,0,*62
1513094579.25,3950,6.56,72766.8,-4.61,-14.33,-14.05,0,*69
1513094580.5,3951,6.56,72752.0,-4.63,-14.23,-13.87,0,*66
1513094581.72,3952,6.56,72728.8,-4.63,-14.15,-13.73,0,*6B
1513094582.95,3953,6.5,72712.8,-4.63,-14.19,-13.73,0,*66
1513094584.14,3954,6.56,72722.0,-4.61,-14.11,-13.69,0,*60
1513094585.39,3955,6.56,72734.8,-4.59,-14.15,-13.83,0,*6A
1513094586.61,3956,6.56,72726.0,-4.61,-14.29,-13.83,0,*6D
1513094587.81,3957,6.56,72738.0,-4.61,-14.29,-13.73,0,*63
1513094589.04,3958,6.56,72736.5,-4.59,-14.15,-13.73,0,*68
1513094590.26,3959,6.56,72740.5,-4.59,-14.19,-13.73,0,*65
1513094591.48,3960,6.56,72736.3,-4.57,-14.05,-13.65,0,*6B
1513094592.73,3961,6.56,72724.0,-4.59,-13.97,-13.55,0,*6B
1513094593.95,3962,6.5,72736.3,-4.59,-13.47,-13.11,0,*65
1513094595.19,3963,6.56,72740.8,-4.59,-13.11,-13.33,0,*67
1513094596.47,3964,6.56,72756.0,-4.59,-12.75,-13.33,0,*63
1513094597.73,3965,6.5,72740.3,-4.59,-12.75,-13.01,0,*63
1513094598.95,3966,6.56,72732.0,-4.59,-13.15,-13.23,0,*67
1513094600.2,3967,6.56,72714.3,-4.59,-12.75,-12.89,0,*60
1513094601.45,3968,6.5,72698.0,-4.59,-12.75,-12.89,0,*6F
1513094602.69,3969,6.56,72712.3,-4.59,-12.39,-12.75,0,*65
1513094603.94,3970,6.56,72708.5,-4.59,-10.93,-11.59,0,*62
1513094605.16,3971,6.56,72714.8,-4.57,-10.57,-11.55,0,*69
1513094606.4,3972,6.56,72726.8,-4.59,-11.19,-11.97,0,*61
1513094607.67,3973,6.56,72730.5,-4.59,-11.77,-11.89,0,*67
1513094608.94,3974,6.56,72732.0,-4.59,-11.73,-11.89,0,*64
1513094610.19,3975,6.56,72746.8,-4.59,-12.29,-11.63,0,*6D
1513094611.4,3976,6.56,72742.0,-4.61,-12.25,-11.41,0,*69
1513094612.64,3977,6.56,72756.5,-4.61,-12.15,-11.33,0,*6E
1513094613.87,3978,6.56,72726.5,-4.61,-11.89,-11.01,0,*66
1513094615.15,3979,6.5,72760.8,-4.59,-11.63,-10.75,0,*6A
1513094616.35,3980,6.56,72732.5,-4.57,-11.45,-10.53,0,*62
1513094617.54,3981,6.56,72728.0,-4.57,-11.19,-10.49,0,*61
1513094618.77,3982,6.56,72740.0,-4.57,-11.07,-10.57,0,*62
1513094619.97,3983,6.56,72740.5,-4.57,-10.89,-10.45,0,*67
1513094621.16,3984,6.56,72696.8,-4.57,-10.53,-10.27,0,*63
1513094622.36,3985,6.56,72706.0,-4.57,-10.53,-10.31,0,*65
1513094623.59,3986,6.56,72712.5,-4.57,-10.31,-10.41,0,*65
1513094624.78,3987,6.56,72716.3,-4.57,-10.57,-10.85,0,*6C
1513094626.03,3988,6.56,72722.0,-4.57,-10.63,-10.63,0,*6C
1513094627.27,3989,6.56,72734.0,-4.55,-10.75,-10.85,0,*60
1513094628.54,3990,6.56,72716.8,-4.55,-10.75,-10.71,0,*63
1513094629.78,3991,6.56,72726.5,-4.55,-10.53,-10.75,0,*62
1513094631.0,3992,6.56,72714.8,-4.51,-10.93,-11.19,0,*62
1513094632.22,3993,6.5,72694.5,-4.55,-10.89,-11.23,0,*65
1513094633.46,3994,6.56,72708.0,-4.55,-11.23,-11.85,0,*6F
1513094634.66,3995,6.56,72720.3,-4.57,-10.85,-11.23,0,*6D
1513094635.93,3996,6.56,72720.5,-4.59,-10.79,-11.89,0,*63
1513094637.18,3997,6.56,72726.8,-4.57,-10.63,-11.85,0,*6B
1513094638.42,3998,6.56,72728.0,-4.59,-10.89,-11.97,0,*6D
1513094639.65,3999,6.56,72742.3,-4.57,-10.97,-11.93,0,*69
1513094640.87,4000,6.56,72746.3,-4.57,-11.33,-12.25,0,*66
1513094642.1,4001,6.5,72754.3,-4.57,-11.59,-12.39,0,*66
1513094643.37,4002,6.56,72754.3,-4.55,-11.85,-12.79,0,*62
1513094644.64,4003,6.56,72752.8,-4.55,-12.11,-12.71,0,*65
1513094645.89,4004,6.56,72748.3,-4.55,-12.65,-13.11,0,*66
1513094647.11,4005,6.56,72744.0,-4.57,-12.65,-13.11,0,*65
1513094648.33,4006,6.56,72740.8,-4.57,-12.79,-12.93,0,*60
1513094649.6,4007,6.5,72752.8,-4.59,-12.75,-12.83,0,*62
1513094650.85,4008,6.56,72760.0,-4.57,-12.57,-12.11,0,*68
1513094652.1,4009,6.56,72774.5,-4.57,-12.71,-12.35,0,*6B
1513094653.32,4010,6.56,72774.3,-4.57,-12.71,-12.43,0,*62
1513094654.59,4011,6.56,72774.5,-4.55,-12.79,-12.57,0,*6C
1513094655.84,4012,6.56,72776.8,-4.55,-12.53,-12.43,0,*62
1513094657.11,4013,6.5,72766.8,-4.55,-12.35,-12.57,0,*66
1513094658.34,4014,6.56,72768.0,-4.57,-12.25,-12.71,0,*66
1513094659.57,4015,6.56,72778.0,-4.57,-12.25,-12.79,0,*6F
1513094660.76,4016,6.56,72774.0,-4.57,-12.39,-12.97,0,*61
1513094661.99,4017,6.56,72768.3,-4.57,-12.53,-13.23,0,*62
1513094663.23,4018,6.56,72736.0,-4.57,-12.57,-13.37,0,*6C
1513094664.45,4019,6.56,72734.3,-4.57,-12.79,-13.55,0,*65
1513094665.64,4020,6.56,72740.3,-4.57,-12.93,-13.65,0,*68
1513094666.83,4021,6.56,72764.0,-4.57,-13.11,-13.69,0,*6E
1513094668.03,4022,6.56,72742.5,-4.57,-13.43,-14.11,0,*62
1513094669.22,4023,6.56,72740.8,-4.57,-13.55,-14.11,0,*64
1513094670.46,4024,6.56,72782.5,-4.55,-12.71,-13.55,0,*61
1513094671.71,4025,6.56,72750.5,-4.55,-14.05,-14.37,0,*66
1513094672.93,4026,6.56,72758.8,-4.55,-14.11,-14.29,0,*6F
1513094674.16,4027,6.56,72736.5,-4.55,-14.23,-14.37,0,*60
1513094675.38,4028,6.56,72750.3,-4.55,-14.23,-14.29,0,*60
1513094676.6,4029,6.56,72740.3,-4.55,-14.29,-14.37,0,*64
1513094677.82,4030,6.56,72764.3,-4.55,-14.29,-14.37,0,*6C
1513094679.07,4031,6.56,72768.5,-4.51,-14.37,-14.43,0,*65
1513094680.34,4032,6.56,72766.8,-4.55,-14.51,-14.51,0,*61
1513094681.61,4033,6.56,72762.0,-4.55,-14.55,-14.51,0,*64
1513094682.85,4034,6.56,72770.0,-4.55,-14.65,-14.55,0,*64
1513094684.08,4035,6.56,72770.5,-4.57,-14.79,-14.65,0,*69
1513094685.33,4036,6.56,72742.8,-4.55,-14.83,-14.65,0,*6D
1513094686.6,4037,6.56,72718.0,-4.55,-14.83,-14.55,0,*6F
1513094687.85,4038,6.56,72746.3,-4.51,-14.89,-14.51,0,*6A
1513094689.12,4039,6.56,72738.3,-4.55,-14.83,-14.55,0,*61
1513094690.4,4040,6.56,72742.8,-4.55,-14.83,-14.51,0,*6B
1513094691.67,4041,6.56,72746.8,-4.55,-14.83,-14.55,0,*6E
1513094692.92,4042,6.56,72756.3,-4.51,-14.79,-14.61,0,*6B
1513094694.16,4043,6.56,72754.8,-4.55,-14.93,-14.65,0,*6E
1513094695.4,4044,6.56,72750.3,-4.55,-14.93,-14.69,0,*65
1513094696.63,4045,6.56,72754.3,-4.55,-14.93,-14.69,0,*64
1513094697.86,4046,6.56,72746.8,-4.55,-14.97,-14.69,0,*63
1513094699.1,4047,6.56,72752.8,-4.55,-14.97,-14.65,0,*6E
1513094700.34,4048,6.56,72718.0,-4.55,-14.97,-14.65,0,*61
1513094701.58,4049,6.5,72706.8,-4.55,-14.97,-14.65,0,*60
1513094702.86,4050,6.56,72708.5,-4.55,-14.83,-14.55,0,*6E
1513094704.12,4051,6.56,72718.8,-4.55,-14.79,-14.43,0,*6D
1513094705.39,4052,6.56,72706.8,-4.55,-14.79,-14.51,0,*6D
1513094706.65,4053,6.56,72692.3,-4.55,-14.83,-14.43,0,*6A
1513094707.92,4054,6.56,72694.0,-4.55,-14.93,-14.51,0,*6F
1513094709.19,4055,6.56,72700.5,-4.55,-14.83,-14.51,0,*6F
1513094710.47,4056,6.56,72718.8,-4.55,-14.83,-14.51,0,*6C
1513094711.69,4057,6.56,72710.0,-4.51,-14.61,-14.37,0,*65
1513094712.9,4058,6.56,72704.8,-4.55,-14.65,-14.23,0,*6F
1513094714.15,4059,6.56,72706.0,-4.55,-14.51,-14.23,0,*69
1513094715.41,4060,6.5,72718.5,-4.51,-14.47,-14.23,0,*60
1513094716.62,4061,6.5,72714.8,-4.55,-14.69,-14.37,0,*6C
1513094717.84,4062,6.56,72714.5,-4.55,-14.65,-14.29,0,*6C
1513094719.09,4063,6.56,72706.0,-4.55,-14.51,-14.29,0,*6A
1513094720.33,4064,6.56,72712.5,-4.51,-14.75,-14.33,0,*64
1513094721.52,4065,6.56,72712.8,-4.49,-14.61,-14.33,0,*69
1513094722.78,4066,6.56,72724.0,-4.55,-14.79,-14.43,0,*69
1513094724.03,4067,6.56,72716.8,-4.51,-14.75,-14.37,0,*63
1513094725.25,4068,6.56,72732.5,-4.51,-14.89,-14.37,0,*6F
1513094726.52,4069,6.56,72724.8,-4.51,-14.93,-14.47,0,*62
1513094727.76,4070,6.56,72712.8,-4.51,-14.79,-14.33,0,*6D
1513094729.02,4071,6.56,72752.0,-4.55,-14.93,-14.43,0,*6B
1513094730.24,4072,6.56,72714.3,-4.51,-14.65,-14.23,0,*63
1513094731.51,4073,6.56,72704.5,-4.51,-15.01,-14.47,0,*63
1513094732.72,4074,6.56,72732.5,-4.49,-14.93,-14.33,0,*64
1513094733.94,4075,6.56,72728.3,-4.51,-14.89,-14.33,0,*67
1513094735.15,4076,6.56,72718.8,-4.55,-14.69,-14.37,0,*6A
1513094736.39,4077,6.56,72728.8,-4.55,-15.07,-14.43,0,*61
1513094737.63,4078,6.56,72728.5,-4.55,-14.79,-14.37,0,*65
1513094738.87,4079,6.56,72710.8,-4.51,-15.01,-14.23,0,*6B
1513094740.11,4080,6.56,72708.8,-4.55,-14.65,-13.97,0,*62
1513094741.38,4081,6.56,72730.8,-4.55,-14.79,-14.05,0,*62
1513094742.61,4082,6.5,72722.3,-4.51,-14.15,-13.65,0,*6E
1513094743.86,4083,6.56,72724.0,-4.55,-14.15,-13.37,0,*6C
1513094745.1,4084,6.5,72726.5,-4.55,-14.55,-13.69,0,*64
1513094746.31,4085,6.56,72716.8,-4.55,-14.69,-13.51,0,*61
1513094747.56,4086,6.56,72732.8,-4.55,-14.55,-13.19,0,*61
1513094748.85,4087,6.56,72726.5,-4.55,-13.83,-12.71,0,*63
1513094750.1,4088,6.56,72720.3,-4.55,-14.51,-12.97,0,*6C
1513094751.37,4089,6.56,72728.8,-4.55,-14.51,-12.57,0,*61
1513094752.61,4090,6.56,72744.8,-4.57,-14.15,-12.35,0,*6F
1513094753.86,4091,6.56,72750.5,-4.57,-13.83,-12.07,0,*67
1513094755.14,4092,6.56,72746.0,-4.59,-13.97,-11.97,0,*65
1513094756.36,4093,6.56,72730.0,-4.57,-13.93,-11.67,0,*61
1513094757.58,4094,6.56,72732.8,-4.59,-13.55,-11.41,0,*66
1513094758.8,4095,6.56,72744.5,-4.59,-13.55,-11.15,0,*66
1513094760.05,4096,6.56,72724.0,-4.59,-13.01,-10.93,0,*6B
1513094761.27,4097,6.56,72714.0,-4.57,-13.07,-10.71,0,*6E
1513094762.49,4098,6.56,72728.3,-4.57,-12.71,-10.45,0,*66
1513094763.73,4099,6.56,72704.3,-4.57,-12.53,-10.19,0,*6E
1513094764.95,4100,6.56,72718.5,-4.57,-11.81,-10.01,0,*6A
1513094766.17,4101,6.56,72728.3,-4.59,-10.93,-9.79,0,*50
1513094767.39,4102,6.56,72720.5,-4.59,-11.01,-9.93,0,*5D
1513094768.6,4103,6.56,72722.5,-4.59,-11.15,-9.93,0,*59
1513094769.79,4104,6.56,72718.5,-4.57,-11.15,-9.71,0,*5C
1513094771.03,4105,6.56,72726.0,-4.59,-10.31,-9.15,0,*56
1513094772.28,4106,6.56,72740.0,-4.57,-10.63,-9.45,0,*59
1513094773.52,4107,6.56,72732.5,-4.59,-10.57,-9.41,0,*55
1513094774.76,4108,6.56,72736.0,-4.61,-10.63,-9.53,0,*55
1513094776.03,4109,6.56,72742.3,-4.59,-10.63,-9.61,0,*5E
1513094777.27,4110,6.56,72744.8,-4.59,-10.35,-9.49,0,*5F
1513094778.49,4111,6.56,72730.5,-4.59,-11.01,-9.79,0,*5B
1513094779.74,4112,6.56,72732.3,-4.59,-11.07,-9.71,0,*56
1513094780.98,4113,6.56,72726.3,-4.59,-10.79,-9.71,0,*5F
1513094782.23,4114,6.56,72734.3,-4.59,-10.67,-9.79,0,*5F
1513094783.44,4115,6.56,72736.0,-4.59,-10.35,-9.79,0,*59
1513094784.66,4116,6.56,72736.5,-4.59,-10.23,-9.79,0,*5D
1513094785.88,4117,6.56,72736.3,-4.59,-10.23,-10.09,0,*63
1513094787.1,4118,6.56,72732.8,-4.59,-10.45,-10.31,0,*67
1513094788.33,4119,6.56,72748.5,-4.59,-10.19,-10.35,0,*6B
1513094789.58,4120,6.56,72732.5,-4.59,-10.45,-10.67,0,*6F
1513094790.8,4121,6.56,72734.0,-4.59,-10.49,-10.89,0,*62
1513094792.02,4122,6.56,72732.5,-4.59,-10.31,-10.93,0,*65
1513094793.26,4123,6.56,72732.0,-4.59,-10.23,-11.07,0,*6B
1513094794.51,4124,6.56,72746.3,-4.59,-10.31,-11.07,0,*6F
1513094795.76,4125,6.56,72748.0,-4.59,-10.93,-11.63,0,*64
1513094797.0,4126,6.56,72758.5,-4.59,-11.19,-12.11,0,*62
1513094798.25,4127,6.56,72718.8,-4.59,-11.97,-12.97,0,*6B
1513094799.45,4128,6.56,72740.5,-4.61,-12.25,-13.15,0,*6E
1513094800.7,4129,6.56,72750.8,-4.61,-12.57,-13.29,0,*65
1513094801.91,4130,6.56,72752.5,-4.61,-12.71,-13.47,0,*61
1513094803.14,4131,6.56,72762.0,-4.61,-12.89,-13.61,0,*63
1513094804.38,4132,6.56,72766.0,-4.59,-12.97,-13.61,0,*64
1513094805.62,4133,6.56,72764.3,-4.59,-13.01,-13.69,0,*63
1513094806.87,4134,6.56,72770.0,-4.59,-13.23,-13.61,0,*6C
1513094808.09,4135,6.56,72768.3,-4.61,-13.47,-13.97,0,*6D
1513094809.29,4136,6.56,72774.0,-4.61,-13.69,-13.73,0,*68
1513094810.54,4137,6.56,72772.5,-4.61,-13.61,-13.83,0,*6E
1513094811.76,4138,6.56,72774.3,-4.61,-13.97,-13.73,0,*67
1513094812.97,4139,6.56,72766.3,-4.61,-14.15,-13.69,0,*60
1513094814.21,4140,6.56,72764.5,-4.63,-13.79,-13.65,0,*6D
1513094815.43,4141,6.56,72758.5,-4.61,-14.11,-13.83,0,*6F
1513094816.65,4142,6.56,72754.8,-4.63,-14.19,-13.93,0,*67
1513094817.88,4143,6.56,72792.0,-4.61,-13.87,-13.55,0,*6E
1513094819.11,4144,6.56,72782.5,-4.61,-14.19,-14.01,0,*6F
1513094820.35,4145,6.56,72754.8,-4.63,-14.33,-13.87,0,*6D
1513094821.57,4146,6.56,72740.5,-4.59,-14.15,-13.69,0,*63
1513094822.78,4147,6.56,72738.5,-4.61,-14.19,-13.55,0,*6A
1513094824.0,4148,6.56,72724.5,-4.63,-14.23,-13.51,0,*6A
1513094825.23,4149,6.56,72712.5,-4.61,-14.15,-13.29,0,*63
1513094826.46,4150,6.56,72714.0,-4.61,-13.97,-13.15,0,*69
1513094827.68,4151,6.56,72714.0,-4.63,-13.73,-12.97,0,*6B
1513094828.89,4152,6.56,72716.5,-4.61,-13.69,-12.93,0,*65
1513094830.1,4153,6.56,72720.3,-4.63,-13.47,-12.93,0,*6A
1513094831.32,4154,6.56,72712.5,-4.59,-13.47,-12.89,0,*6F
1513094832.52,4155,6.56,72738.8,-4.61,-13.47,-12.89,0,*65
1513094833.79,4156,6.56,72740.3,-4.63,-13.61,-13.01,0,*61
1513094835.01,4157,6.56,72734.5,-4.61,-13.47,-12.83,0,*6D
1513094836.22,4158,6.56,72742.0,-4.59,-13.47,-12.89,0,*63
1513094837.49,4159,6.56,72748.3,-4.63,-12.61,-12.07,0,*68
1513094838.69,4160,6.56,72742.5,-4.61,-12.89,-12.39,0,*6B
1513094839.97,4161,6.56,72752.3,-4.63,-13.01,-12.53,0,*65
1513094841.23,4162,6.56,72766.8,-4.63,-12.61,-12.07,0,*60
1513094842.52,4163,6.56,72762.8,-4.63,-11.93,-11.63,0,*6E
1513094843.79,4164,6.56,72764.0,-4.63,-12.75,-12.35,0,*62
1513094845.04,4165,6.56,72756.0,-4.63,-12.79,-12.47,0,*6A
1513094846.29,4166,6.56,72760.0,-4.61,-12.57,-12.11,0,*64
1513094847.54,4167,6.56,72768.3,-4.63,-11.93,-11.45,0,*6E
1513094848.81,4168,6.56,72764.5,-4.63,-11.81,-11.89,0,*62
1513094850.05,4169,6.56,72736.8,-4.63,-12.43,-11.81,0,*66
1513094851.32,4170,6.56,72732.3,-4.63,-12.07,-10.71,0,*60
1513094852.56,4171,6.56,72746.8,-4.63,-10.71,-9.89,0,*5D
1513094853.8,4172,6.56,72752.8,-4.63,-10.27,-10.71,0,*62
1513094855.05,4173,6.56,72740.8,-4.61,-11.07,-11.73,0,*61
1513094856.3,4174,6.56,72746.0,-4.63,-11.77,-12.03,0,*67
1513094857.57,4175,6.56,72758.3,-4.63,-12.07,-12.15,0,*65
1513094858.82,4176,6.56,72760.0,-4.63,-11.93,-12.03,0,*6F
1513094860.05,4177,6.56,72744.5,-4.61,-12.25,-12.11,0,*61
1513094861.32,4178,6.56,72754.3,-4.63,-12.07,-11.93,0,*65
1513094862.58,4179,6.56,72756.3,-4.61,-12.07,-11.63,0,*69
1513094863.85,4180,6.56,72756.8,-4.63,-11.51,-11.07,0,*6F
1513094865.1,4181,6.56,72760.5,-4.63,-10.93,-11.07,0,*61
1513094866.32,4182,6.56,72768.3,-4.63,-11.19,-11.45,0,*67
1513094867.57,4183,6.56,72762.3,-4.63,-11.45,-11.67,0,*6F
1513094868.84,4184,6.56,72768.5,-4.63,-11.37,-11.55,0,*6C
1513094870.09,4185,6.56,72758.0,-4.63,-11.45,-11.77,0,*68
1513094871.36,4186,6.56,72756.0,-4.63,-11.37,-11.63,0,*6B
1513094872.61,4187,6.56,72770.3,-4.63,-11.23,-11.77,0,*6A
1513094873.88,4188,6.56,72756.3,-4.63,-11.07,-11.89,0,*62
1513094875.15,4189,6.56,72754.3,-4.63,-11.37,-12.15,0,*66
1513094876.37,4190,6.56,72754.0,-4.63,-11.23,-12.03,0,*6C
1513094877.62,4191,6.56,72762.3,-4.63,-11.33,-12.29,0,*64
1513094878.84,4192,6.56,72760.5,-4.65,-11.11,-12.15,0,*6E
1513094880.06,4193,6.56,72758.3,-4.63,-11.11,-12.29,0,*66
1513094881.34,4194,6.56,72752.3,-4.63,-10.67,-12.07,0,*6D
1513094882.58,4195,6.56,72746.3,-4.63,-11.23,-12.65,0,*69
1513094883.85,4196,6.56,72736.0,-4.63,-11.55,-13.01,0,*68
1513094885.08,4197,6.56,72682.3,-4.63,-11.81,-13.07,0,*66
1513094886.32,4198,6.56,72684.8,-4.63,-11.81,-13.07,0,*69
1513094887.59,4199,6.56,72700.0,-4.63,-11.55,-13.01,0,*67
1513094888.83,4200,6.56,72696.5,-4.63,-11.67,-13.07,0,*63
1513094890.11,4201,6.56,72702.5,-4.63,-11.93,-13.33,0,*6E
1513094891.33,4202,6.56,72698.0,-4.61,-11.89,-13.15,0,*60
1513094892.57,4203,6.56,72718.8,-4.63,-11.77,-13.07,0,*61
1513094893.79,4204,6.56,72726.3,-4.61,-11.77,-13.15,0,*67
1513094895.06,4205,6.56,72692.3,-4.63,-11.63,-13.01,0,*64
1513094896.3,4206,6.56,72684.3,-4.61,-11.51,-12.83,0,*6F
1513094897.55,4207,6.56,72706.3,-4.63,-11.63,-13.07,0,*60
1513094898.8,4208,6.56,72692.3,-4.61,-11.77,-13.33,0,*6F
1513094900.04,4209,6.56,72698.5,-4.61,-11.73,-13.29,0,*61
1513094901.27,4210,6.56,72714.8,-4.61,-11.45,-13.33,0,*67
1513094902.49,4211,6.56,72688.5,-4.61,-11.59,-13.15,0,*6F
1513094903.71,4212,6.56,72708.5,-4.61,-11.77,-13.43,0,*63
1513094904.96,4213,6.56,72702.0,-4.61,-11.85,-13.33,0,*68
1513094906.21,4214,6.56,72726.5,-4.61,-11.85,-13.29,0,*64
1513094907.45,4215,6.56,72724.8,-4.61,-11.97,-13.83,0,*66
1513094908.67,4216,6.56,72750.8,-4.61,-11.81,-13.73,0,*6D
1513094909.89,4217,6.56,72718.0,-4.61,-11.77,-13.69,0,*6E
1513094911.1,4218,6.56,72710.8,-4.61,-11.89,-13.69,0,*60
1513094912.35,4219,6.56,72722.8,-4.63,-11.93,-13.65,0,*64
1513094913.57,4220,6.56,72730.8,-4.61,-11.77,-13.47,0,*66